[[{"header":{"parameterUnit":"m.s-1","parameterCategory":1,"la1":30.2991,"la2":30.254,"lo1":-89.0895,"lo2":-89.0444,"dy":0.0017,"dx":0.0017,"nx":28,"ny":28,"refTime":"2024-06-12T09:00:00:Z","depth":0,"parameterNumber":2,"parameterNumberName":"U-component_of_WINDS"},"data":[0,0,0,0,0,0,0,0,0,0,0,0,0,0,0,0,0,0,0,0,0,0,0,0,0,0,0,0,0,0,0,0,0,0,0,0,0,0,0,0,0,0,0,0,0,0,0,0,0,0,0,0,0,0,0,0,0,0,-2.2145,-2.2145,0,-2.216,-2.2161,-2.2161,-2.2108,-2.2106,-2.2105,-2.2103,-2.212,-2.2122,-2.2124,0,0,0,0,0,0,0,0,0,0,0,0,0,-2.207,-2.2072,-2.2145,-2.2145,-2.2145,-2.216,-2.2161,-2.2161,-2.2108,-2.2106,-2.2104,-2.2103,-2.2119,-2.2122,-2.2124,0,0,0,0,0,0,0,0,0,0,0,0,0,-2.2096,-2.2072,-2.2145,-2.2121,-2.2119,-2.216,-2.2161,-2.2161,-2.2109,-2.2106,-2.2104,-2.2102,-2.2119,-2.2121,-2.2124,-2.219,0,0,-2.2133,-2.2134,0,0,0,0,0,0,0,0,-2.2095,-2.2099,-2.2124,-2.2123,-2.212,-2.213,-2.214,-2.2171,-2.2109,-2.2113,-2.2103,-2.2101,-2.2125,-2.2127,-2.2136,-2.2191,-2.2191,-2.2133,-2.2135,-2.2136,-2.2137,0,0,0,0,0,0,0,-2.2093,-2.2098,-2.2151,-2.2125,-2.2122,-2.211,-2.2111,-2.2146,-2.2132,-2.2112,-2.2108,-2.2111,-2.2124,-2.2133,-2.2136,-2.2192,-2.2133,-2.2136,-2.2138,-2.2139,-2.2302,-2.2305,0,0,0,0,0,0,-2.2094,-2.2097,-2.215,-2.2151,-2.2101,-2.2113,-2.2114,-2.2129,-2.2132,-2.213,-2.2113,-2.2108,-2.2129,-2.2132,-2.2136,-2.2214,-2.2136,-2.2139,-2.2141,-2.23,-2.2303,-2.2306,0,0,0,0,0,0,-2.2093,-2.2099,-2.215,-2.2123,-2.2128,-2.2117,-2.2134,-2.2131,-2.214,-2.2132,-2.2129,-2.2125,-2.2127,-2.2132,-2.2177,-2.2214,-2.214,-2.2143,-2.2297,-2.2301,-2.2304,-2.237,0,0,0,0,0,0,-2.2091,-2.2099,-2.2124,-2.2124,-2.213,-2.2191,-2.2136,-2.2133,-2.2145,-2.2139,-2.2143,-2.2141,-2.2126,-2.2173,-2.218,-2.2217,-2.2145,-2.2293,-2.2298,-2.2303,-2.2365,-2.2376,-2.2385,0,0,0,0,0,-2.2088,-2.2142,-2.2125,-2.2132,-2.2161,-2.2193,-2.2196,-2.2178,-2.2148,-2.2173,-2.2168,-2.2141,-2.2208,-2.2178,-2.2185,-2.2223,-2.2291,-2.2297,-2.2303,-2.236,-2.2374,-2.2385,0,0,0,0,0,0,-2.2146,-2.2141,-2.2123,-2.2178,-2.2186,-2.2184,-2.2215,-2.2193,-2.221,-2.2204,-2.218,-2.2181,-2.2231,-2.2231,-2.2198,-2.2287,-2.2245,-2.2252,-2.2286,-2.2299,-2.2309,-2.2308,-2.2148,0,0,0,0,0,-2.2165,-2.2192,-2.2186,-2.2235,-2.224,-2.2227,-2.224,-2.2225,-2.2233,-2.2236,-2.2234,-2.2243,-2.2266,-2.2282,-2.2303,-2.2364,-2.2365,-2.2394,-2.2404,-2.2413,-2.242,-2.2454,-2.2467,-2.2325,-2.2325,-2.2325,0,0,-2.2205,-2.2206,-2.2224,-2.2247,-2.2251,-2.228,-2.223,-2.2262,-2.2283,-2.2241,-2.2284,-2.2283,-2.2291,-2.2345,-2.2368,-2.2347,-2.2459,-2.242,-2.2427,-2.243,-2.2461,-2.2474,-2.2486,-2.2329,-2.2328,-2.2328,0,0,-2.2293,-2.2295,-2.2337,-2.2343,-2.235,-2.2341,-2.2351,-2.2352,-2.235,-2.2393,-2.2362,-2.2387,-2.2427,-2.2434,-2.2444,-2.2534,-2.251,-2.2542,-2.2596,-2.2629,-2.2641,-2.2651,-2.2684,-2.2697,-2.2549,-2.2549,-2.2549,0,-2.2342,-2.2383,-2.2361,-2.2396,-2.2407,-2.237,-2.2413,-2.2419,-2.2433,-2.2442,-2.2417,-2.2468,-2.2471,-2.2526,-2.2549,-2.2556,-2.2568,-2.2542,-2.2641,-2.265,-2.2659,-2.2691,-2.2704,-2.2553,-2.2552,-2.2552,-2.2551,0,-2.2443,-2.2473,-2.2505,-2.252,-2.2535,-2.2573,-2.2558,-2.2576,-2.2559,-2.2553,-2.2597,-2.2599,-2.262,-2.2632,-2.2616,-2.2686,-2.2672,-2.2645,-2.2601,-2.2677,-2.2707,-2.2719,-2.2558,-2.2557,-2.2556,-2.2555,0,0,-2.2569,-2.2571,-2.2584,-2.2591,-2.2596,-2.2619,-2.2656,-2.2676,-2.2692,-2.2703,-2.2734,-2.2769,-2.2744,-2.2754,-2.2739,-2.2768,-2.2841,-2.2736,-2.2736,-2.2757,-2.292,-2.2942,-2.2956,-2.2825,-2.2827,-2.2829,-2.292,0,-2.2656,-2.2719,-2.2701,-2.2765,-2.2792,-2.2757,-2.2789,-2.2797,-2.2792,-2.2814,-2.2808,-2.2835,-2.2798,-2.2804,-2.2831,-2.2827,-2.2874,-2.282,-2.2855,-2.2856,-2.2855,-2.2972,-2.2995,-2.3081,-2.2931,-2.2933,-2.2934,0,-2.2767,-2.2783,-2.2849,-2.2851,-2.2862,-2.2891,-2.2909,-2.2931,-2.2939,-2.2933,-2.2945,-2.2924,-2.296,-2.2916,-2.2967,-2.293,-2.2943,-2.2943,-2.2946,-2.295,-2.2901,-2.298,-2.3108,-2.3121,-2.2952,-2.2951,-2.2949,0,-2.2854,-2.2891,-2.2936,-2.2943,-2.2946,-2.2968,-2.297,-2.2975,-2.2989,-2.3004,-2.3013,-2.3033,-2.3044,-2.306,-2.3045,-2.3014,-2.3099,-2.3053,-2.3096,-2.3097,-2.3117,-2.3117,-2.325,-2.3123,-2.3123,-2.3123,-2.3122,0,-2.2954,-2.2997,-2.2975,-2.3003,-2.305,-2.3028,-2.3075,-2.3074,-2.3079,-2.3106,-2.3076,-2.3103,-2.3081,-2.3105,-2.3093,-2.3138,-2.3143,-2.314,-2.3137,-2.3144,-2.3145,-2.3153,-2.3148,-2.3126,-2.3125,-2.3125,-2.3124,0,-2.306,-2.3047,-2.3094,-2.3093,-2.3094,-2.3129,-2.3128,-2.3154,-2.3147,-2.3182,-2.3189,-2.3178,-2.3205,-2.3191,-2.3219,-2.3211,-2.327,-2.3258,-2.3268,-2.3265,-2.331,-2.3307,-2.3456,-2.3475,-2.3334,-2.3335,-2.3336,0,-2.3126,-2.3158,-2.316,-2.3177,-2.3181,-2.3207,-2.3221,-2.3201,-2.3217,-2.3229,-2.3254,-2.3278,-2.3297,-2.3343,-2.3338,-2.3359,-2.3348,-2.3399,-2.3352,-2.3358,-2.3351,-2.335,-2.3354,-2.3409,-2.3411,-2.3412,-2.3413,0,-2.3245,-2.3237,-2.3258,-2.3278,-2.3296,-2.331,-2.3322,-2.3337,-2.3317,-2.3337,-2.3364,-2.3379,-2.3408,-2.3434,-2.3453,-2.3455,-2.3432,-2.3428,-2.3439,-2.3448,-2.3453,-2.3453,-2.3296,-2.3425,-2.3424,-2.3423,-2.3422,-2.3422,-2.3333,-2.3361,-2.3367,-2.3392,-2.3399,-2.3411,-2.3436,-2.3432,-2.3454,-2.3477,-2.3463,-2.3496,-2.3503,-2.3527,-2.3532,-2.3558,-2.3538,-2.3554,-2.3559,-2.3564,-2.3571,-2.3447,-2.3561,-2.3561,-2.356,-2.356,-2.356,0,-2.3452,-2.3455,-2.3478,-2.3496,-2.3516,-2.3491,-2.3503,-2.3522,-2.3551,-2.356,-2.3579,-2.3611,-2.3636,-2.3633,-2.3655,-2.3677,-2.3667,-2.3683,-2.3683,-2.3684,-2.3586,-2.3575,-2.3691,-2.3691,-2.3691,-2.3691,-2.3691,-2.3691,-2.3516,-2.3562,-2.3555,-2.3604,-2.3605,-2.3638,-2.3647,-2.3658,-2.3665,-2.3703,-2.3723,-2.372,-2.3725,-2.3747,-2.3769,-2.3767,-2.3778,-2.3799,-2.3794,-2.3703,-2.3691,-2.3678,-2.3667,-2.3801,-2.3801,-2.3889,-2.389,-2.3891]},{"header":{"parameterUnit":"m.s-1","parameterCategory":1,"la1":30.2991,"la2":30.254,"lo1":-89.0895,"lo2":-89.0444,"dy":0.0017,"dx":0.0017,"nx":28,"ny":28,"refTime":"2024-06-12T09:00:00:Z","depth":0,"parameterNumber":3,"parameterNumberName":"V-component_of_WINDS"},"data":[0,0,0,0,0,0,0,0,0,0,0,0,0,0,0,0,0,0,0,0,0,0,0,0,0,0,0,0,0,0,0,0,0,0,0,0,0,0,0,0,0,0,0,0,0,0,0,0,0,0,0,0,0,0,0,0,0,0,-2.4689,-2.469,0,-2.4737,-2.4737,-2.4738,-2.4726,-2.4725,-2.4724,-2.4723,-2.4769,-2.4771,-2.4773,0,0,0,0,0,0,0,0,0,0,0,0,0,-2.4585,-2.4587,-2.4689,-2.469,-2.469,-2.4737,-2.4737,-2.4738,-2.4726,-2.4725,-2.4724,-2.4723,-2.4769,-2.4771,-2.4774,0,0,0,0,0,0,0,0,0,0,0,0,0,-2.4631,-2.4588,-2.4689,-2.469,-2.4691,-2.4737,-2.4737,-2.4738,-2.4726,-2.4725,-2.4724,-2.4722,-2.4768,-2.4771,-2.4774,-2.4821,0,0,-2.4784,-2.4785,0,0,0,0,0,0,0,0,-2.4628,-2.4635,-2.4689,-2.469,-2.4691,-2.4724,-2.4718,-2.4766,-2.4727,-2.4713,-2.4723,-2.4722,-2.4755,-2.4759,-2.4771,-2.4823,-2.4825,-2.4784,-2.4786,-2.4787,-2.4788,0,0,0,0,0,0,0,-2.4625,-2.4633,-2.4708,-2.469,-2.4691,-2.4687,-2.4692,-2.4727,-2.4741,-2.4714,-2.4713,-2.4719,-2.4755,-2.4768,-2.4772,-2.4826,-2.4784,-2.4787,-2.4788,-2.479,-2.4919,-2.492,0,0,0,0,0,0,-2.4622,-2.463,-2.4706,-2.4709,-2.4656,-2.469,-2.4696,-2.4715,-2.4741,-2.4743,-2.472,-2.4718,-2.4764,-2.4769,-2.4774,-2.4831,-2.4787,-2.479,-2.4792,-2.4917,-2.4919,-2.4921,0,0,0,0,0,0,-2.462,-2.4629,-2.4705,-2.467,-2.4679,-2.4694,-2.4715,-2.4717,-2.4729,-2.4746,-2.4748,-2.4731,-2.4763,-2.4769,-2.481,-2.4832,-2.4791,-2.4794,-2.4915,-2.4918,-2.492,-2.4946,0,0,0,0,0,0,-2.4617,-2.4628,-2.4647,-2.467,-2.4681,-2.4741,-2.4716,-2.4718,-2.4735,-2.4733,-2.4756,-2.4759,-2.4762,-2.4805,-2.4813,-2.4836,-2.4797,-2.4913,-2.4916,-2.4919,-2.4943,-2.4949,-2.4953,0,0,0,0,0,-2.4613,-2.4652,-2.4648,-2.4657,-2.4705,-2.4742,-2.4748,-2.4752,-2.4737,-2.4756,-2.4766,-2.4758,-2.4828,-2.4809,-2.4818,-2.4842,-2.4912,-2.4916,-2.4919,-2.494,-2.4947,-2.4953,0,0,0,0,0,0,-2.463,-2.4655,-2.4651,-2.4698,-2.4718,-2.474,-2.4764,-2.4759,-2.4783,-2.478,-2.4783,-2.4788,-2.4829,-2.484,-2.4818,-2.4889,-2.4868,-2.4873,-2.4881,-2.4888,-2.4893,-2.489,-2.4799,0,0,0,0,0,-2.4639,-2.4668,-2.4688,-2.4728,-2.4738,-2.4749,-2.4765,-2.4767,-2.4787,-2.4795,-2.4808,-2.4828,-2.4854,-2.4871,-2.4897,-2.4944,-2.4949,-2.4965,-2.497,-2.4974,-2.4979,-2.5005,-2.5013,-2.4932,-2.4932,-2.4932,0,0,-2.4658,-2.4675,-2.4693,-2.4731,-2.4747,-2.4776,-2.4756,-2.4788,-2.4809,-2.4799,-2.4839,-2.4849,-2.4871,-2.4915,-2.4935,-2.4924,-2.5002,-2.4979,-2.4982,-2.4985,-2.5009,-2.5017,-2.5024,-2.4935,-2.4934,-2.4934,0,0,-2.4709,-2.4724,-2.476,-2.4776,-2.48,-2.4807,-2.4816,-2.4838,-2.4845,-2.4884,-2.4878,-2.4903,-2.4948,-2.4964,-2.4978,-2.5034,-2.5027,-2.5042,-2.507,-2.5095,-2.5101,-2.5107,-2.5127,-2.5135,-2.5046,-2.5046,-2.5046,0,-2.4729,-2.4774,-2.4778,-2.4811,-2.4828,-2.4821,-2.4856,-2.4871,-2.4902,-2.4913,-2.4901,-2.4959,-2.4972,-2.502,-2.5034,-2.5045,-2.5055,-2.504,-2.51,-2.5106,-2.5111,-2.5131,-2.5138,-2.5048,-2.5048,-2.5048,-2.5048,0,-2.4799,-2.483,-2.4855,-2.4886,-2.4906,-2.4939,-2.4947,-2.4966,-2.4966,-2.4974,-2.5014,-2.503,-2.5059,-2.507,-2.5069,-2.5118,-2.5111,-2.51,-2.5078,-2.5121,-2.5139,-2.5146,-2.505,-2.505,-2.5049,-2.5049,0,0,-2.4862,-2.4895,-2.4904,-2.4918,-2.4944,-2.4968,-2.5,-2.5029,-2.5046,-2.5067,-2.5094,-2.5133,-2.5123,-2.5139,-2.5139,-2.5161,-2.5205,-2.5147,-2.5148,-2.5158,-2.526,-2.5269,-2.5277,-2.5201,-2.5202,-2.5203,-2.5258,0,-2.4915,-2.4975,-2.4979,-2.5032,-2.5061,-2.5054,-2.5083,-2.5102,-2.511,-2.5134,-2.5143,-2.517,-2.5155,-2.5164,-2.5186,-2.5195,-2.5226,-2.5191,-2.5226,-2.5227,-2.5222,-2.5287,-2.5297,-2.5348,-2.5265,-2.5267,-2.5267,0,-2.4985,-2.501,-2.5067,-2.5089,-2.5101,-2.5127,-2.5154,-2.5177,-2.5198,-2.5202,-2.522,-2.5217,-2.525,-2.5227,-2.5273,-2.5249,-2.5263,-2.527,-2.5272,-2.5276,-2.5251,-2.5294,-2.5364,-2.5372,-2.5279,-2.5278,-2.5277,0,-2.5027,-2.5074,-2.5114,-2.5126,-2.5152,-2.5171,-2.5182,-2.5202,-2.5219,-2.5241,-2.5253,-2.5278,-2.5293,-2.5313,-2.5317,-2.53,-2.5362,-2.534,-2.5367,-2.5367,-2.5381,-2.538,-2.5456,-2.5389,-2.5388,-2.5388,-2.5388,0,-2.5087,-2.5122,-2.5133,-2.5158,-2.5196,-2.52,-2.5238,-2.5248,-2.5265,-2.5291,-2.5286,-2.5311,-2.5315,-2.534,-2.5343,-2.538,-2.5386,-2.539,-2.5391,-2.5391,-2.5391,-2.5401,-2.5398,-2.539,-2.539,-2.539,-2.5389,0,-2.514,-2.5149,-2.5192,-2.5214,-2.522,-2.5248,-2.5266,-2.5289,-2.5296,-2.5329,-2.5337,-2.5348,-2.5377,-2.5383,-2.5417,-2.542,-2.5464,-2.5461,-2.5458,-2.5458,-2.5485,-2.5482,-2.5571,-2.5582,-2.5507,-2.5507,-2.5508,0,-2.5178,-2.5205,-2.523,-2.5247,-2.526,-2.5288,-2.5306,-2.531,-2.5329,-2.5354,-2.5374,-2.5403,-2.5426,-2.5472,-2.5483,-2.5509,-2.5507,-2.5536,-2.5511,-2.551,-2.5508,-2.5507,-2.551,-2.5541,-2.5542,-2.5542,-2.5543,0,-2.5245,-2.5248,-2.5274,-2.5302,-2.5324,-2.5345,-2.5366,-2.538,-2.5387,-2.5408,-2.5438,-2.5456,-2.5491,-2.552,-2.5546,-2.5556,-2.5551,-2.5551,-2.5558,-2.556,-2.5557,-2.556,-2.5472,-2.5549,-2.5548,-2.5548,-2.5547,-2.5547,-2.5292,-2.5316,-2.5338,-2.5367,-2.5383,-2.5403,-2.5426,-2.5436,-2.5462,-2.5492,-2.5492,-2.5525,-2.5544,-2.5578,-2.5591,-2.5616,-2.5607,-2.5618,-2.5621,-2.5624,-2.5627,-2.5552,-2.562,-2.562,-2.562,-2.562,-2.562,0,-2.536,-2.5373,-2.54,-2.543,-2.5453,-2.5446,-2.5468,-2.5488,-2.5517,-2.5536,-2.5559,-2.5594,-2.5621,-2.5634,-2.5661,-2.5678,-2.5676,-2.5685,-2.5684,-2.5687,-2.5633,-2.5624,-2.5686,-2.5686,-2.5686,-2.5686,-2.5686,-2.5686,-2.5398,-2.5438,-2.5443,-2.5491,-2.5504,-2.5537,-2.5551,-2.5568,-2.5583,-2.5623,-2.5646,-2.5654,-2.567,-2.5698,-2.5723,-2.5726,-2.5736,-2.5746,-2.5748,-2.5698,-2.5691,-2.5684,-2.5676,-2.5748,-2.5748,-2.58,-2.5801,-2.5801]}]]